iso_date,Year,Hour,Min,DOY,POS_DOY,Lat,Lon,BP,Ts,Ta,has_bp,has_ts,has_ta,BuoyID,Buoy_Type,Buoy_Owner,Logistics,Hemisphere
2022-07-31T07:00:02Z,2022,7,0,212.2917,212.2917,58.0166,-168.161,1012.3,9.46,-999.0,yes,yes,no,300534061383140,SVP-B,GDP/USIABP,Healy,North
2022-07-31T06:24:02Z,2022,6,24,212.2667,212.2667,58.0142,-168.1678,1011.4,9.36,-999.0,yes,yes,no,300534061383140,SVP-B,GDP/USIABP,Healy,North
2022-07-31T07:59:57Z,2022,8,0,212.3333,212.3333,58.0192,-168.1452,1012.4,9.36,-999.0,yes,yes,no,300534061383140,SVP-B,GDP/USIABP,Healy,North
2022-07-31T09:00:00Z,2022,9,0,212.375,212.375,58.0182,-168.129,1012.3,9.21,-999.0,yes,yes,no,300534061383140,SVP-B,GDP/USIABP,Healy,North
2022-07-31T10:00:02Z,2022,10,0,212.4167,212.4167,58.013,-168.115,1012.4,9.08,-999.0,yes,yes,no,300534061383140,SVP-B,GDP/USIABP,Healy,North
2022-07-31T10:59:57Z,2022,11,0,212.4583,212.4583,58.0064,-168.1066,1012.4,8.95,-999.0,yes,yes,no,300534061383140,SVP-B,GDP/USIABP,Healy,North
2022-07-31T12:00:00Z,2022,12,0,212.5,212.5,57.9994,-168.1038,1012.1,8.9,-999.0,yes,yes,no,300534061383140,SVP-B,GDP/USIABP,Healy,North
2022-07-31T13:00:02Z,2022,13,0,212.5417,212.5417,57.9932,-168.1064,1012.2,8.87,-999.0,yes,yes,no,300534061383140,SVP-B,GDP/USIABP,Healy,North
2022-07-31T13:59:57Z,2022,14,0,212.5833,212.5833,57.9894,-168.1124,1012.0,8.84,-999.0,yes,yes,no,300534061383140,SVP-B,GDP/USIABP,Healy,North
2022-07-31T15:00:00Z,2022,15,0,212.625,212.625,57.989,-168.12,1011.3,8.81,-999.0,yes,yes,no,300534061383140,SVP-B,GDP/USIABP,Healy,North
2022-07-31T16:00:02Z,2022,16,0,212.6667,212.6667,57.9914,-168.1256,1010.8,8.79,-999.0,yes,yes,no,300534061383140,SVP-B,GDP/USIABP,Healy,North
2022-07-31T16:59:57Z,2022,17,0,212.7083,212.7083,57.9966,-168.1288,1010.7,8.73,-999.0,yes,yes,no,300534061383140,SVP-B,GDP/USIABP,Healy,North
2022-07-31T18:00:00Z,2022,18,0,212.75,212.75,58.003,-168.1278,1010.8,8.72,-999.0,yes,yes,no,300534061383140,SVP-B,GDP/USIABP,Healy,North
2022-07-31T19:00:02Z,2022,19,0,212.7917,212.7917,58.0092,-168.1238,1010.5,8.74,-999.0,yes,yes,no,300534061383140,SVP-B,GDP/USIABP,Healy,North
2022-07-31T19:59:57Z,2022,20,0,212.8333,212.8333,58.0142,-168.1186,1010.2,8.74,-999.0,yes,yes,no,300534061383140,SVP-B,GDP/USIABP,Healy,North
2022-07-31T21:00:00Z,2022,21,0,212.875,212.875,58.0172,-168.1146,1009.6,8.73,-999.0,yes,yes,no,300534061383140,SVP-B,GDP/USIABP,Healy,North
2022-07-31T22:00:02Z,2022,22,0,212.9167,212.9167,58.018,-168.1144,1008.7,8.73,-999.0,yes,yes,no,300534061383140,SVP-B,GDP/USIABP,Healy,North
2022-07-31T22:59:57Z,2022,23,0,212.9583,212.9583,58.0168,-168.1196,1007.8,8.73,-999.0,yes,yes,no,300534061383140,SVP-B,GDP/USIABP,Healy,North
2022-08-01T00:00:00Z,2022,0,0,213.0,213.0,58.0156,-168.13,1006.7,8.73,-999.0,yes,yes,no,300534061383140,SVP-B,GDP/USIABP,Healy,North
2022-08-01T01:00:02Z,2022,1,0,213.0417,213.0417,58.0154,-168.145,1005.6,8.76,-999.0,yes,yes,no,300534061383140,SVP-B,GDP/USIABP,Healy,North
2022-08-01T01:59:57Z,2022,2,0,213.0833,213.0833,58.0174,-168.1628,1004.6,8.75,-999.0,yes,yes,no,300534061383140,SVP-B,GDP/USIABP,Healy,North
2022-08-01T03:00:00Z,2022,3,0,213.125,213.125,58.0226,-168.1802,1003.7,8.71,-999.0,yes,yes,no,300534061383140,SVP-B,GDP/USIABP,Healy,North
2022-08-01T04:00:02Z,2022,4,0,213.1667,213.1667,58.0304,-168.1932,1003.4,8.69,-999.0,yes,yes,no,300534061383140,SVP-B,GDP/USIABP,Healy,North
2022-08-01T04:59:57Z,2022,5,0,213.2083,213.2083,58.0402,-168.199,1003.1,8.69,-999.0,yes,yes,no,300534061383140,SVP-B,GDP/USIABP,Healy,North
2022-08-01T06:00:00Z,2022,6,0,213.25,213.25,58.0502,-168.1976,1003.1,8.68,-999.0,yes,yes,no,300534061383140,SVP-B,GDP/USIABP,Healy,North
2022-08-01T07:00:02Z,2022,7,0,213.2917,213.2917,58.0586,-168.1886,1003.5,8.66,-999.0,yes,yes,no,300534061383140,SVP-B,GDP/USIABP,Healy,North
2022-08-01T07:59:57Z,2022,8,0,213.3333,213.3333,58.0644,-168.1738,1004.1,8.65,-999.0,yes,yes,no,300534061383140,SVP-B,GDP/USIABP,Healy,North
2022-08-01T09:00:00Z,2022,9,0,213.375,213.375,58.0666,-168.157,1004.6,8.65,-999.0,yes,yes,no,300534061383140,SVP-B,GDP/USIABP,Healy,North
2022-08-01T10:00:02Z,2022,10,0,213.4167,213.4167,58.065,-168.1398,1005.2,8.66,-999.0,yes,yes,no,300534061383140,SVP-B,GDP/USIABP,Healy,North
2022-08-01T10:59:57Z,2022,11,0,213.4583,213.4583,58.0602,-168.128,1005.8,8.66,-999.0,yes,yes,no,300534061383140,SVP-B,GDP/USIABP,Healy,North
2022-08-01T12:00:00Z,2022,12,0,213.5,213.5,58.0538,-168.121,1006.6,8.65,-999.0,yes,yes,no,300534061383140,SVP-B,GDP/USIABP,Healy,North
2022-08-01T13:00:02Z,2022,13,0,213.5417,213.5417,58.0474,-168.1192,1007.1,8.62,-999.0,yes,yes,no,300534061383140,SVP-B,GDP/USIABP,Healy,North
2022-08-01T13:59:57Z,2022,14,0,213.5833,213.5833,58.0418,-168.1226,1007.9,8.61,-999.0,yes,yes,no,300534061383140,SVP-B,GDP/USIABP,Healy,North
2022-08-01T15:00:00Z,2022,15,0,213.625,213.625,58.0386,-168.1286,1009.3,8.6,-999.0,yes,yes,no,300534061383140,SVP-B,GDP/USIABP,Healy,North
2022-08-01T16:00:02Z,2022,16,0,213.6667,213.6667,58.0392,-168.1356,1010.6,8.59,-999.0,yes,yes,no,300534061383140,SVP-B,GDP/USIABP,Healy,North
2022-08-01T16:59:57Z,2022,17,0,213.7083,213.7083,58.0424,-168.14,1011.9,8.57,-999.0,yes,yes,no,300534061383140,SVP-B,GDP/USIABP,Healy,North
2022-08-01T18:00:00Z,2022,18,0,213.75,213.75,58.0474,-168.1404,1012.6,8.57,-999.0,yes,yes,no,300534061383140,SVP-B,GDP/USIABP,Healy,North
2022-08-01T19:00:02Z,2022,19,0,213.7917,213.7917,58.053,-168.1368,1013.5,8.58,-999.0,yes,yes,no,300534061383140,SVP-B,GDP/USIABP,Healy,North
2022-08-01T19:59:57Z,2022,20,0,213.8333,213.8333,58.0576,-168.131,1014.1,8.59,-999.0,yes,yes,no,300534061383140,SVP-B,GDP/USIABP,Healy,North
2022-08-01T21:00:00Z,2022,21,0,213.875,213.875,58.0612,-168.1248,1015.0,8.59,-999.0,yes,yes,no,300534061383140,SVP-B,GDP/USIABP,Healy,North
2022-08-01T22:00:02Z,2022,22,0,213.9167,213.9167,58.0628,-168.1202,1015.8,8.62,-999.0,yes,yes,no,300534061383140,SVP-B,GDP/USIABP,Healy,North
2022-08-01T22:59:57Z,2022,23,0,213.9583,213.9583,58.0638,-168.119,1016.1,8.62,-999.0,yes,yes,no,300534061383140,SVP-B,GDP/USIABP,Healy,North
2022-08-02T00:00:00Z,2022,0,0,214.0,214.0,58.0618,-168.1238,1016.8,8.62,-999.0,yes,yes,no,300534061383140,SVP-B,GDP/USIABP,Healy,North
2022-08-02T01:00:02Z,2022,1,0,214.0417,214.0417,58.0614,-168.1314,1016.9,8.62,-999.0,yes,yes,no,300534061383140,SVP-B,GDP/USIABP,Healy,North
2022-08-02T01:59:57Z,2022,2,0,214.0833,214.0833,58.0618,-168.142,1017.4,8.63,-999.0,yes,yes,no,300534061383140,SVP-B,GDP/USIABP,Healy,North
2022-08-02T03:00:00Z,2022,3,0,214.125,214.125,58.0644,-168.1536,1017.7,8.62,-999.0,yes,yes,no,300534061383140,SVP-B,GDP/USIABP,Healy,North
2022-08-02T04:00:02Z,2022,4,0,214.1667,214.1667,58.0692,-168.1646,1018.0,8.6,-999.0,yes,yes,no,300534061383140,SVP-B,GDP/USIABP,Healy,North
2022-08-02T04:59:57Z,2022,5,0,214.2083,214.2083,58.076,-168.171,1018.4,8.58,-999.0,yes,yes,no,300534061383140,SVP-B,GDP/USIABP,Healy,North
2022-08-02T06:00:00Z,2022,6,0,214.25,214.25,58.0856,-168.17,1018.5,8.56,-999.0,yes,yes,no,300534061383140,SVP-B,GDP/USIABP,Healy,North
2022-08-02T07:00:02Z,2022,7,0,214.2917,214.2917,58.0916,-168.1658,1018.9,8.54,-999.0,yes,yes,no,300534061383140,SVP-B,GDP/USIABP,Healy,North
2022-08-02T07:59:57Z,2022,8,0,214.3333,214.3333,58.0972,-168.154,1019.5,8.54,-999.0,yes,yes,no,300534061383140,SVP-B,GDP/USIABP,Healy,North
2022-08-02T09:00:00Z,2022,9,0,214.375,214.375,58.1006,-168.14,1020.0,8.53,-999.0,yes,yes,no,300534061383140,SVP-B,GDP/USIABP,Healy,North
2022-08-02T10:00:02Z,2022,10,0,214.4167,214.4167,58.1004,-168.1248,1020.6,8.53,-999.0,yes,yes,no,300534061383140,SVP-B,GDP/USIABP,Healy,North
2022-08-02T10:59:57Z,2022,11,0,214.4583,214.4583,58.1004,-168.1248,1021.2,8.53,-999.0,yes,yes,no,300534061383140,SVP-B,GDP/USIABP,Healy,North
2022-08-02T12:00:00Z,2022,12,0,214.5,214.5,58.0922,-168.1024,1021.4,8.52,-999.0,yes,yes,no,300534061383140,SVP-B,GDP/USIABP,Healy,North
2022-08-02T13:00:02Z,2022,13,0,214.5417,214.5417,58.0856,-168.0996,1021.6,8.51,-999.0,yes,yes,no,300534061383140,SVP-B,GDP/USIABP,Healy,North
2022-08-02T13:59:57Z,2022,14,0,214.5833,214.5833,58.0802,-168.1022,1021.8,8.5,-999.0,yes,yes,no,300534061383140,SVP-B,GDP/USIABP,Healy,North
2022-08-02T15:00:00Z,2022,15,0,214.625,214.625,58.0764,-168.109,1021.7,8.49,-999.0,yes,yes,no,300534061383140,SVP-B,GDP/USIABP,Healy,North
2022-08-02T16:00:02Z,2022,16,0,214.6667,214.6667,58.0758,-168.1162,1022.0,8.5,-999.0,yes,yes,no,300534061383140,SVP-B,GDP/USIABP,Healy,North
2022-08-02T16:59:57Z,2022,17,0,214.7083,214.7083,58.079,-168.1224,1022.2,8.48,-999.0,yes,yes,no,300534061383140,SVP-B,GDP/USIABP,Healy,North
2022-08-02T18:00:00Z,2022,18,0,214.75,214.75,58.0844,-168.126,1022.8,8.48,-999.0,yes,yes,no,300534061383140,SVP-B,GDP/USIABP,Healy,North
2022-08-02T19:00:02Z,2022,19,0,214.7917,214.7917,58.0912,-168.1258,1022.9,8.5,-999.0,yes,yes,no,300534061383140,SVP-B,GDP/USIABP,Healy,North
2022-08-02T19:59:57Z,2022,20,0,214.8333,214.8333,58.0974,-168.1222,1023.2,8.52,-999.0,yes,yes,no,300534061383140,SVP-B,GDP/USIABP,Healy,North
2022-08-02T21:00:00Z,2022,21,0,214.875,214.875,58.1024,-168.1158,1023.2,8.55,-999.0,yes,yes,no,300534061383140,SVP-B,GDP/USIABP,Healy,North
2022-08-02T22:00:02Z,2022,22,0,214.9167,214.9167,58.1052,-168.1092,1023.3,8.61,-999.0,yes,yes,no,300534061383140,SVP-B,GDP/USIABP,Healy,North
2022-08-02T22:59:57Z,2022,23,0,214.9583,214.9583,58.1058,-168.1052,1023.0,8.64,-999.0,yes,yes,no,300534061383140,SVP-B,GDP/USIABP,Healy,North
2022-08-03T00:00:00Z,2022,0,0,215.0,215.0,58.1054,-168.1048,1022.9,8.77,-999.0,yes,yes,no,300534061383140,SVP-B,GDP/USIABP,Healy,North
2022-08-03T01:00:02Z,2022,1,0,215.0417,215.0417,58.1046,-168.1084,1022.7,8.84,-999.0,yes,yes,no,300534061383140,SVP-B,GDP/USIABP,Healy,North
2022-08-03T01:59:57Z,2022,2,0,215.0833,215.0833,58.1038,-168.1154,1022.4,8.84,-999.0,yes,yes,no,300534061383140,SVP-B,GDP/USIABP,Healy,North
2022-08-03T03:00:00Z,2022,3,0,215.125,215.125,58.1046,-168.125,1021.6,8.86,-999.0,yes,yes,no,300534061383140,SVP-B,GDP/USIABP,Healy,North
2022-08-03T04:00:02Z,2022,4,0,215.1667,215.1667,58.1072,-168.135,1021.2,8.87,-999.0,yes,yes,no,300534061383140,SVP-B,GDP/USIABP,Healy,North
2022-08-03T04:59:57Z,2022,5,0,215.2083,215.2083,58.1122,-168.1424,1020.4,8.84,-999.0,yes,yes,no,300534061383140,SVP-B,GDP/USIABP,Healy,North
2022-08-03T06:00:00Z,2022,6,0,215.25,215.25,58.1186,-168.1454,1020.0,8.82,-999.0,yes,yes,no,300534061383140,SVP-B,GDP/USIABP,Healy,North
2022-08-03T07:00:02Z,2022,7,0,215.2917,215.2917,58.1254,-168.1428,1019.1,8.8,-999.0,yes,yes,no,300534061383140,SVP-B,GDP/USIABP,Healy,North
2022-08-03T07:59:57Z,2022,8,0,215.3333,215.3333,58.131,-168.1358,1018.5,8.71,-999.0,yes,yes,no,300534061383140,SVP-B,GDP/USIABP,Healy,North
2022-08-03T09:00:00Z,2022,9,0,215.375,215.375,58.1352,-168.1254,1018.0,8.68,-999.0,yes,yes,no,300534061383140,SVP-B,GDP/USIABP,Healy,North
2022-08-03T10:00:02Z,2022,10,0,215.4167,215.4167,58.1366,-168.114,1017.2,8.65,-999.0,yes,yes,no,300534061383140,SVP-B,GDP/USIABP,Healy,North
2022-08-03T10:59:57Z,2022,11,0,215.4583,215.4583,58.1354,-168.104,1016.3,8.65,-999.0,yes,yes,no,300534061383140,SVP-B,GDP/USIABP,Healy,North
2022-08-03T12:00:00Z,2022,12,0,215.5,215.5,58.1316,-168.0984,1015.5,8.64,-999.0,yes,yes,no,300534061383140,SVP-B,GDP/USIABP,Healy,North
2022-08-03T13:00:02Z,2022,13,0,215.5417,215.5417,58.1274,-168.0986,1014.9,8.63,-999.0,yes,yes,no,300534061383140,SVP-B,GDP/USIABP,Healy,North
2022-08-03T13:59:57Z,2022,14,0,215.5833,215.5833,58.1238,-168.105,1013.6,8.62,-999.0,yes,yes,no,300534061383140,SVP-B,GDP/USIABP,Healy,North
2022-08-03T15:00:00Z,2022,15,0,215.625,215.625,58.1222,-168.116,1012.6,8.63,-999.0,yes,yes,no,300534061383140,SVP-B,GDP/USIABP,Healy,North
2022-08-03T16:00:02Z,2022,16,0,215.6667,215.6667,58.1232,-168.1272,1012.1,8.64,-999.0,yes,yes,no,300534061383140,SVP-B,GDP/USIABP,Healy,North
2022-08-03T16:59:57Z,2022,17,0,215.7083,215.7083,58.1268,-168.1368,1012.0,8.65,-999.0,yes,yes,no,300534061383140,SVP-B,GDP/USIABP,Healy,North
2022-08-03T18:00:00Z,2022,18,0,215.75,215.75,58.1326,-168.1416,1011.2,8.66,-999.0,yes,yes,no,300534061383140,SVP-B,GDP/USIABP,Healy,North
2022-08-03T19:00:02Z,2022,19,0,215.7917,215.7917,58.1396,-168.1406,1010.9,8.69,-999.0,yes,yes,no,300534061383140,SVP-B,GDP/USIABP,Healy,North
2022-08-03T19:59:57Z,2022,20,0,215.8333,215.8333,58.1458,-168.1348,1011.0,8.71,-999.0,yes,yes,no,300534061383140,SVP-B,GDP/USIABP,Healy,North
2022-08-03T21:00:00Z,2022,21,0,215.875,215.875,58.1506,-168.126,1010.6,8.72,-999.0,yes,yes,no,300534061383140,SVP-B,GDP/USIABP,Healy,North
2022-08-03T22:00:02Z,2022,22,0,215.9167,215.9167,58.1526,-168.1158,1010.5,8.73,-999.0,yes,yes,no,300534061383140,SVP-B,GDP/USIABP,Healy,North
2022-08-03T22:59:57Z,2022,23,0,215.9583,215.9583,58.152,-168.1074,1010.7,8.73,-999.0,yes,yes,no,300534061383140,SVP-B,GDP/USIABP,Healy,North
2022-08-04T00:00:00Z,2022,0,0,216.0,216.0,58.149,-168.1036,1010.8,8.75,-999.0,yes,yes,no,300534061383140,SVP-B,GDP/USIABP,Healy,North
2022-08-04T01:00:02Z,2022,1,0,216.0417,216.0417,58.1454,-168.1052,1010.6,8.75,-999.0,yes,yes,no,300534061383140,SVP-B,GDP/USIABP,Healy,North
2022-08-04T01:59:57Z,2022,2,0,216.0833,216.0833,58.1424,-168.111,1010.2,8.75,-999.0,yes,yes,no,300534061383140,SVP-B,GDP/USIABP,Healy,North
2022-08-04T03:00:00Z,2022,3,0,216.125,216.125,58.1412,-168.1196,1009.6,8.73,-999.0,yes,yes,no,300534061383140,SVP-B,GDP/USIABP,Healy,North
2022-08-04T04:00:02Z,2022,4,0,216.1667,216.1667,58.1426,-168.1286,1009.2,8.73,-999.0,yes,yes,no,300534061383140,SVP-B,GDP/USIABP,Healy,North
2022-08-04T04:59:57Z,2022,5,0,216.2083,216.2083,58.1476,-168.1344,1008.8,8.71,-999.0,yes,yes,no,300534061383140,SVP-B,GDP/USIABP,Healy,North
2022-08-04T06:00:00Z,2022,6,0,216.25,216.25,58.1548,-168.1328,1008.6,8.7,-999.0,yes,yes,no,300534061383140,SVP-B,GDP/USIABP,Healy,North
2022-08-04T07:00:02Z,2022,7,0,216.2917,216.2917,58.1632,-168.1222,1008.0,8.68,-999.0,yes,yes,no,300534061383140,SVP-B,GDP/USIABP,Healy,North
2022-08-04T07:59:57Z,2022,8,0,216.3333,216.3333,58.1704,-168.1058,1007.6,8.64,-999.0,yes,yes,no,300534061383140,SVP-B,GDP/USIABP,Healy,North
2022-08-04T09:00:00Z,2022,9,0,216.375,216.375,58.1754,-168.0828,1007.1,8.59,-999.0,yes,yes,no,300534061383140,SVP-B,GDP/USIABP,Healy,North
2022-08-04T10:00:02Z,2022,10,0,216.4167,216.4167,58.1128,-168.1376,1006.8,8.52,-999.0,yes,yes,no,300534061383140,SVP-B,GDP/USIABP,Healy,North
2022-08-04T10:59:57Z,2022,11,0,216.4583,216.4583,58.1758,-168.032,1006.5,8.46,-999.0,yes,yes,no,300534061383140,SVP-B,GDP/USIABP,Healy,North
2022-08-04T12:00:00Z,2022,12,0,216.5,216.5,58.1718,-168.014,1006.1,8.42,-999.0,yes,yes,no,300534061383140,SVP-B,GDP/USIABP,Healy,North
2022-08-04T13:00:02Z,2022,13,0,216.5417,216.5417,58.1648,-168.0026,1005.7,8.4,-999.0,yes,yes,no,300534061383140,SVP-B,GDP/USIABP,Healy,North
2022-08-04T13:59:57Z,2022,14,0,216.5833,216.5833,58.1582,-167.9974,1005.4,8.38,-999.0,yes,yes,no,300534061383140,SVP-B,GDP/USIABP,Healy,North
2022-08-04T15:00:00Z,2022,15,0,216.625,216.625,58.1582,-167.9974,1005.0,8.34,-999.0,yes,yes,no,300534061383140,SVP-B,GDP/USIABP,Healy,North
2022-08-04T16:00:02Z,2022,16,0,216.6667,216.6667,58.1494,-168.0072,1005.0,8.32,-999.0,yes,yes,no,300534061383140,SVP-B,GDP/USIABP,Healy,North
2022-08-04T16:59:57Z,2022,17,0,216.7083,216.7083,58.1496,-168.016,1004.7,8.32,-999.0,yes,yes,no,300534061383140,SVP-B,GDP/USIABP,Healy,North
2022-08-04T18:00:00Z,2022,18,0,216.75,216.75,58.1496,-168.016,1004.8,8.31,-999.0,yes,yes,no,300534061383140,SVP-B,GDP/USIABP,Healy,North
2022-08-04T19:00:02Z,2022,19,0,216.7917,216.7917,58.1612,-168.0316,1004.6,8.32,-999.0,yes,yes,no,300534061383140,SVP-B,GDP/USIABP,Healy,North
2022-08-04T19:59:57Z,2022,20,0,216.8333,216.8333,58.171,-168.0298,1004.8,8.31,-999.0,yes,yes,no,300534061383140,SVP-B,GDP/USIABP,Healy,North
2022-08-04T21:00:00Z,2022,21,0,216.875,216.875,58.1882,-168.0276,1005.0,8.3,-999.0,yes,yes,no,300534061383140,SVP-B,GDP/USIABP,Healy,North
2022-08-04T22:00:02Z,2022,22,0,216.9167,216.9167,58.1882,-168.0276,1005.2,8.32,-999.0,yes,yes,no,300534061383140,SVP-B,GDP/USIABP,Healy,North
2022-08-04T22:59:57Z,2022,23,0,216.9583,216.9583,58.1928,-167.9906,1005.3,8.32,-999.0,yes,yes,no,300534061383140,SVP-B,GDP/USIABP,Healy,North
2022-08-05T00:00:00Z,2022,0,0,217.0,217.0,58.1936,-167.976,1005.5,8.32,-999.0,yes,yes,no,300534061383140,SVP-B,GDP/USIABP,Healy,North
2022-08-05T01:00:02Z,2022,1,0,217.0417,217.0417,58.1912,-167.9636,1005.6,8.34,-999.0,yes,yes,no,300534061383140,SVP-B,GDP/USIABP,Healy,North
2022-08-05T01:59:57Z,2022,2,0,217.0833,217.0833,58.1866,-167.957,1005.5,8.34,-999.0,yes,yes,no,300534061383140,SVP-B,GDP/USIABP,Healy,North
2022-08-05T03:00:00Z,2022,3,0,217.125,217.125,58.1806,-167.9558,1005.9,8.35,-999.0,yes,yes,no,300534061383140,SVP-B,GDP/USIABP,Healy,North
2022-08-05T04:00:02Z,2022,4,0,217.1667,217.1667,58.1756,-167.9604,1005.6,8.36,-999.0,yes,yes,no,300534061383140,SVP-B,GDP/USIABP,Healy,North
2022-08-05T04:59:57Z,2022,5,0,217.2083,217.2083,58.173,-167.9684,1006.1,8.36,-999.0,yes,yes,no,300534061383140,SVP-B,GDP/USIABP,Healy,North
2022-08-05T06:00:00Z,2022,6,0,217.25,217.25,58.1734,-167.9754,1006.7,8.34,-999.0,yes,yes,no,300534061383140,SVP-B,GDP/USIABP,Healy,North
2022-08-05T07:00:02Z,2022,7,0,217.2917,217.2917,58.1734,-167.9754,1006.7,8.33,-999.0,yes,yes,no,300534061383140,SVP-B,GDP/USIABP,Healy,North
2022-08-05T07:59:57Z,2022,8,0,217.3333,217.3333,58.1824,-167.9782,1007.3,8.33,-999.0,yes,yes,no,300534061383140,SVP-B,GDP/USIABP,Healy,North
2022-08-05T09:00:00Z,2022,9,0,217.375,217.375,58.1884,-167.9716,1007.8,8.32,-999.0,yes,yes,no,300534061383140,SVP-B,GDP/USIABP,Healy,North
2022-08-05T10:00:02Z,2022,10,0,217.4167,217.4167,58.1928,-167.9592,1007.9,8.32,-999.0,yes,yes,no,300534061383140,SVP-B,GDP/USIABP,Healy,North
2022-08-05T10:59:57Z,2022,11,0,217.4583,217.4583,58.1956,-167.9438,1008.2,8.32,-999.0,yes,yes,no,300534061383140,SVP-B,GDP/USIABP,Healy,North
2022-08-05T12:00:00Z,2022,12,0,217.5,217.5,58.1954,-167.9306,1008.5,8.31,-999.0,yes,yes,no,300534061383140,SVP-B,GDP/USIABP,Healy,North
2022-08-05T13:00:02Z,2022,13,0,217.5417,217.5417,58.1922,-167.9214,1009.3,8.32,-999.0,yes,yes,no,300534061383140,SVP-B,GDP/USIABP,Healy,North
2022-08-05T13:59:57Z,2022,14,0,217.5833,217.5833,58.187,-167.918,1009.9,8.31,-999.0,yes,yes,no,300534061383140,SVP-B,GDP/USIABP,Healy,North
2022-08-05T15:00:00Z,2022,15,0,217.625,217.625,58.181,-167.921,1010.4,8.3,-999.0,yes,yes,no,300534061383140,SVP-B,GDP/USIABP,Healy,North
2022-08-05T16:00:02Z,2022,16,0,217.6667,217.6667,58.1754,-167.929,1010.7,8.3,-999.0,yes,yes,no,300534061383140,SVP-B,GDP/USIABP,Healy,North
2022-08-05T16:59:57Z,2022,17,0,217.7083,217.7083,58.172,-167.9424,1011.2,8.31,-999.0,yes,yes,no,300534061383140,SVP-B,GDP/USIABP,Healy,North
2022-08-05T18:00:00Z,2022,18,0,217.75,217.75,58.1724,-167.9584,1011.4,8.3,-999.0,yes,yes,no,300534061383140,SVP-B,GDP/USIABP,Healy,North
2022-08-05T19:00:02Z,2022,19,0,217.7917,217.7917,58.177,-167.973,1012.0,8.31,-999.0,yes,yes,no,300534061383140,SVP-B,GDP/USIABP,Healy,North
2022-08-05T19:59:57Z,2022,20,0,217.8333,217.8333,58.1848,-167.9812,1011.7,8.3,-999.0,yes,yes,no,300534061383140,SVP-B,GDP/USIABP,Healy,North
2022-08-05T21:00:00Z,2022,21,0,217.875,217.875,58.1938,-167.9822,1011.6,8.31,-999.0,yes,yes,no,300534061383140,SVP-B,GDP/USIABP,Healy,North
2022-08-05T22:00:02Z,2022,22,0,217.9167,217.9167,58.2032,-167.9758,1011.7,8.32,-999.0,yes,yes,no,300534061383140,SVP-B,GDP/USIABP,Healy,North
2022-08-05T22:59:57Z,2022,23,0,217.9583,217.9583,58.2098,-167.9652,1011.6,8.32,-999.0,yes,yes,no,300534061383140,SVP-B,GDP/USIABP,Healy,North
2022-08-06T00:00:00Z,2022,0,0,218.0,218.0,58.2134,-167.95,1011.4,8.32,-999.0,yes,yes,no,300534061383140,SVP-B,GDP/USIABP,Healy,North
2022-08-06T01:00:02Z,2022,1,0,218.0417,218.0417,58.213,-167.935,1011.6,8.33,-999.0,yes,yes,no,300534061383140,SVP-B,GDP/USIABP,Healy,North
2022-08-06T01:59:57Z,2022,2,0,218.0833,218.0833,58.2088,-167.9234,1011.8,8.34,-999.0,yes,yes,no,300534061383140,SVP-B,GDP/USIABP,Healy,North
2022-08-06T03:00:00Z,2022,3,0,218.125,218.125,58.2024,-167.9166,1012.1,8.35,-999.0,yes,yes,no,300534061383140,SVP-B,GDP/USIABP,Healy,North
2022-08-06T04:00:02Z,2022,4,0,218.1667,218.1667,58.1946,-167.9148,1012.8,8.36,-999.0,yes,yes,no,300534061383140,SVP-B,GDP/USIABP,Healy,North
2022-08-06T04:59:57Z,2022,5,0,218.2083,218.2083,58.187,-167.9178,1013.4,8.34,-999.0,yes,yes,no,300534061383140,SVP-B,GDP/USIABP,Healy,North
2022-08-06T06:00:00Z,2022,6,0,218.25,218.25,58.1814,-167.924,1014.6,8.33,-999.0,yes,yes,no,300534061383140,SVP-B,GDP/USIABP,Healy,North
2022-08-06T07:00:02Z,2022,7,0,218.2917,218.2917,58.1782,-167.9298,1015.7,8.32,-999.0,yes,yes,no,300534061383140,SVP-B,GDP/USIABP,Healy,North
2022-08-06T07:59:57Z,2022,8,0,218.3333,218.3333,58.1774,-167.9338,1016.7,8.32,-999.0,yes,yes,no,300534061383140,SVP-B,GDP/USIABP,Healy,North
2022-08-06T09:00:00Z,2022,9,0,218.375,218.375,58.1786,-167.9338,1017.7,8.32,-999.0,yes,yes,no,300534061383140,SVP-B,GDP/USIABP,Healy,North
2022-08-06T10:00:02Z,2022,10,0,218.4167,218.4167,58.1796,-167.9276,1018.1,8.31,-999.0,yes,yes,no,300534061383140,SVP-B,GDP/USIABP,Healy,North
2022-08-06T10:59:57Z,2022,11,0,218.4583,218.4583,58.182,-167.9256,1018.9,8.31,-999.0,yes,yes,no,300534061383140,SVP-B,GDP/USIABP,Healy,North
2022-08-06T12:00:00Z,2022,12,0,218.5,218.5,58.182,-167.9188,1019.4,8.3,-999.0,yes,yes,no,300534061383140,SVP-B,GDP/USIABP,Healy,North
2022-08-06T13:00:02Z,2022,13,0,218.5417,218.5417,58.1806,-167.9142,1019.8,8.29,-999.0,yes,yes,no,300534061383140,SVP-B,GDP/USIABP,Healy,North
2022-08-06T13:59:57Z,2022,14,0,218.5833,218.5833,58.1778,-167.9124,1020.3,8.29,-999.0,yes,yes,no,300534061383140,SVP-B,GDP/USIABP,Healy,North
2022-08-06T15:00:00Z,2022,15,0,218.625,218.625,58.1742,-167.9168,1020.7,8.28,-999.0,yes,yes,no,300534061383140,SVP-B,GDP/USIABP,Healy,North
2022-08-06T16:00:02Z,2022,16,0,218.6667,218.6667,58.171,-167.9248,1021.4,8.28,-999.0,yes,yes,no,300534061383140,SVP-B,GDP/USIABP,Healy,North
2022-08-06T16:59:57Z,2022,17,0,218.7083,218.7083,58.1686,-167.9376,1021.6,8.28,-999.0,yes,yes,no,300534061383140,SVP-B,GDP/USIABP,Healy,North
2022-08-06T18:00:00Z,2022,18,0,218.75,218.75,58.1682,-167.9538,1021.8,8.29,-999.0,yes,yes,no,300534061383140,SVP-B,GDP/USIABP,Healy,North
2022-08-06T19:00:02Z,2022,19,0,218.7917,218.7917,58.1708,-167.9692,1022.3,8.3,-999.0,yes,yes,no,300534061383140,SVP-B,GDP/USIABP,Healy,North
2022-08-06T19:59:57Z,2022,20,0,218.8333,218.8333,58.1766,-167.9814,1022.8,8.38,-999.0,yes,yes,no,300534061383140,SVP-B,GDP/USIABP,Healy,North
2022-08-06T21:00:00Z,2022,21,0,218.875,218.875,58.1836,-167.988,1022.6,8.45,-999.0,yes,yes,no,300534061383140,SVP-B,GDP/USIABP,Healy,North
2022-08-06T22:00:02Z,2022,22,0,218.9167,218.9167,58.1924,-167.989,1022.4,8.56,-999.0,yes,yes,no,300534061383140,SVP-B,GDP/USIABP,Healy,North
2022-08-06T22:59:57Z,2022,23,0,218.9583,218.9583,58.1996,-167.9832,1022.1,8.66,-999.0,yes,yes,no,300534061383140,SVP-B,GDP/USIABP,Healy,North
2022-08-07T00:00:00Z,2022,0,0,219.0,219.0,58.2046,-167.973,1021.9,8.78,-999.0,yes,yes,no,300534061383140,SVP-B,GDP/USIABP,Healy,North
2022-08-07T01:00:02Z,2022,1,0,219.0417,219.0417,58.2062,-167.9602,1021.7,8.77,-999.0,yes,yes,no,300534061383140,SVP-B,GDP/USIABP,Healy,North
2022-08-07T01:59:57Z,2022,2,0,219.0833,219.0833,58.2044,-167.9492,1021.3,8.74,-999.0,yes,yes,no,300534061383140,SVP-B,GDP/USIABP,Healy,North
2022-08-07T03:00:00Z,2022,3,0,219.125,219.125,58.2,-167.9414,1020.5,8.69,-999.0,yes,yes,no,300534061383140,SVP-B,GDP/USIABP,Healy,North
2022-08-07T04:00:02Z,2022,4,0,219.1667,219.1667,58.1948,-167.9384,1019.8,8.62,-999.0,yes,yes,no,300534061383140,SVP-B,GDP/USIABP,Healy,North
2022-08-07T04:59:57Z,2022,5,0,219.2083,219.2083,58.189,-167.9382,1018.7,8.58,-999.0,yes,yes,no,300534061383140,SVP-B,GDP/USIABP,Healy,North
2022-08-07T06:00:00Z,2022,6,0,219.25,219.25,58.1848,-167.9388,1017.9,8.54,-999.0,yes,yes,no,300534061383140,SVP-B,GDP/USIABP,Healy,North
2022-08-07T07:00:02Z,2022,7,0,219.2917,219.2917,58.1824,-167.9388,1017.2,8.5,-999.0,yes,yes,no,300534061383140,SVP-B,GDP/USIABP,Healy,North